Location: Franzen
(48.6167°N, 15.3833°E)
Time: 13:54:07
(UTC+00:00)

Cosmos 1655 Rocket - Pass Details

Date: 01 August 2021
Orbit: 969 x 1007 km, 82.9° (Epoch: 25 September)

Event Time Altitude Azimuth Distance (km) Brightness Sun altitude
Exits shadow 21:54:11 15° 222° (SW) 2,452 5.8 -21.8°
Maximum altitude 21:59:14 42° 288° (WNW) 1,409 5.0 -22.0°
Drops below altitude 10° 22:05:17 10° 358° (N) 2,796 7.5 -22.3°
Sets 22:08:00 0° 6° (N) 3,751 8.3 -22.4°
